DateTimeUTC,F1_A11,F1_S11,BsB_S11,BsG_S11,BsR_S11,BbsB_S11,BbsG_S11,BbsR_S11,BaB_A11,BaG_A11,BaR_A11,Tu_S11,T_S11,Uu_S11,U_S11,P_S11,T1_A11
2021-10-25T15:00:00Z,00000200,21000000,,,,,,,-000.22,-000.10,-000.36,17.2,24.3,,00.0,0633.5,30.9
2021-10-25T15:01:00Z,00000200,21000000,,,,,,,0000.08,-000.42,0000.17,17.2,24.3,,00.0,0633.5,30.9
2021-10-25T15:02:00Z,00000200,21000000,,,,,,,-000.21,0000.39,-000.13,17.1,24.3,,00.0,0633.5,30.9
2021-10-25T15:03:00Z,00000200,61000000,,,,,,,0000.08,-000.19,0000.33,17.1,24.3,,00.0,0633.5,30.9
2021-10-25T15:04:00Z,00000200,41000000,0000.27,0000.43,-000.12,0000.73,0000.08,0000.30,-000.01,0000.26,-000.15,17.4,24.2,,00.0,0634.4,31.0
2021-10-25T15:05:00Z,00000200,01000000,0000.53,0000.07,-000.14,0000.44,0000.37,-000.46,0000.54,0000.04,0000.49,17.5,24.2,,00.0,0634.5,31.0
2021-10-25T15:06:00Z,00000200,01000000,0000.23,0000.13,-000.18,0000.53,0000.08,0000.37,0000.36,0000.41,0000.23,17.6,24.2,,00.0,0634.6,31.0
2021-10-25T15:07:00Z,00000200,01000000,0000.58,0000.54,0000.20,0000.07,-000.04,-000.02,-000.13,0000.52,0000.48,17.7,24.2,,00.0,0634.6,31.0
2021-10-25T15:08:00Z,00000200,01000000,0000.47,0000.22,-000.03,0000.11,-000.02,0000.17,0000.24,-000.06,-000.19,17.8,24.3,,00.0,0634.6,31.0
2021-10-25T15:09:00Z,00000200,01000000,0000.56,0000.38,0000.08,0000.18,-000.08,0000.29,-000.10,-000.02,-000.15,17.9,24.3,,00.0,0634.6,31.0
2021-10-25T15:10:00Z,00000200,01000000,0000.25,0000.22,0000.15,0000.36,-000.08,-000.06,-000.15,0000.01,-000.16,17.9,24.3,,00.0,0634.7,31.0
2021-10-25T15:11:00Z,00000200,01000000,0000.39,0000.13,0000.08,0000.71,0000.22,-000.05,0000.08,-000.42,0000.29,17.8,24.3,,00.0,0634.7,31.0
2021-10-25T15:12:00Z,00000200,01000000,0000.21,0000.31,0000.17,-000.25,-000.02,0000.01,0000.25,0000.45,-000.31,17.7,24.3,,00.0,0634.7,31.0
2021-10-25T15:13:00Z,00000200,01000000,0000.76,0000.41,0000.36,0000.31,0000.17,0000.06,-000.29,-000.39,0000.45,17.7,24.2,,00.0,0634.7,31.0
2021-10-25T15:14:00Z,00000200,01000000,0000.47,-000.18,0000.42,-000.19,0000.21,0000.23,0000.19,0000.04,0000.16,17.6,24.2,,00.0,0634.7,31.0
2021-10-25T15:15:00Z,00000200,01000000,0000.09,0000.18,0000.44,0000.16,0000.07,-000.10,0000.10,-000.15,-000.48,17.6,24.1,,00.0,0634.7,30.9
2021-10-25T15:16:00Z,00000200,01000000,0000.87,0000.64,0000.26,0000.43,-000.18,0000.23,0000.48,0000.55,0000.31,17.5,24.1,,00.0,0634.7,31.0
2021-10-25T15:17:00Z,00000200,01000000,0000.35,0000.26,-000.05,-000.10,0000.17,-000.02,0000.10,0000.32,0000.39,17.6,24.1,,00.0,0634.8,31.0
2021-10-25T15:18:00Z,00000200,01000000,-000.31,0000.52,0000.55,0000.19,0000.11,0000.16,0000.36,0000.10,0000.17,17.6,24.1,,00.0,0634.8,31.0
2021-10-25T15:19:00Z,00000200,01000000,0000.41,0000.22,0000.06,0000.28,0000.28,0000.05,-000.01,0000.30,0000.36,17.6,24.2,,00.0,0634.8,31.0
2021-10-25T15:20:00Z,00000200,01000000,0000.94,0000.37,0000.45,0000.04,0000.13,0000.34,0000.32,0000.58,0000.37,17.7,24.2,,00.0,0634.8,31.0
2021-10-25T15:21:00Z,00000200,01000000,0000.23,0000.06,-000.09,0000.19,0000.17,0000.06,0000.11,0000.27,0000.02,17.8,24.2,,00.0,0634.8,31.0
2021-10-25T15:22:00Z,00000200,01000000,-000.04,0000.32,0000.24,0000.47,0000.17,0000.11,0000.41,0000.68,0000.28,17.9,24.3,,00.0,0634.9,31.0
2021-10-25T15:23:00Z,00000200,01000000,0000.06,0000.51,0000.11,0000.09,0000.04,-000.13,0000.01,-000.28,0000.11,18.0,24.3,,00.0,0634.9,31.0
2021-10-25T15:24:00Z,00000200,01000000,0000.17,0000.36,0000.16,0000.52,0000.53,0000.08,0000.31,-000.21,0000.50,18.0,24.3,,00.0,0634.9,31.0
2021-10-25T15:25:00Z,00000200,01000000,0000.79,0000.17,0000.22,0000.17,0000.23,-000.04,-000.05,0000.37,-000.31,17.9,24.3,,00.0,0634.9,31.0
2021-10-25T15:26:00Z,00000200,01000000,0000.47,0000.04,0000.22,0000.26,0000.01,0000.46,0000.00,-000.37,-000.33,17.9,24.3,,00.0,0634.9,31.0
2021-10-25T15:27:00Z,00000200,01000000,0000.24,0000.24,0000.10,0000.57,-000.05,0000.33,0000.34,0000.09,0000.60,17.8,24.3,,00.0,0634.9,31.0
2021-10-25T15:28:00Z,00000200,01000000,0000.24,0000.20,0000.13,0000.06,-000.01,0000.17,-000.48,0000.15,-000.13,17.7,24.2,,00.0,0634.9,31.0
2021-10-25T15:29:00Z,00000200,01000000,0000.86,0000.05,-000.06,0000.17,0000.07,-000.15,0000.88,0000.30,0000.37,17.7,24.2,,00.0,0634.9,31.0
2021-10-25T15:30:00Z,00000200,01000000,0001.42,0000.18,0000.09,0000.21,0000.17,0000.04,0000.14,0000.74,0000.13,17.6,24.2,,00.0,0634.9,30.9
2021-10-25T15:31:00Z,00000200,01000000,0000.21,0000.39,0000.21,0000.05,0000.22,0000.38,-000.17,-000.37,0000.39,17.6,24.2,,00.0,0634.9,30.9
2021-10-25T15:32:00Z,00000200,01000000,0000.57,0000.27,0000.27,-000.44,0000.10,0000.18,0000.55,0000.52,-000.20,17.6,24.2,,00.0,0634.9,31.0
2021-10-25T15:33:00Z,00000200,01000000,0000.21,0000.05,0000.25,0000.47,-000.01,0000.07,0000.27,0000.30,0000.35,17.7,24.2,,00.0,0635.0,31.0
2021-10-25T15:34:00Z,00000200,01000000,0000.93,0000.08,0000.29,0000.18,0000.39,0000.23,0000.27,-000.04,0000.64,17.7,24.2,,00.0,0635.0,31.0
2021-10-25T15:35:00Z,00000200,01000000,0000.23,0000.34,0000.27,0000.54,-000.04,0000.13,-000.17,0000.20,-000.03,17.8,24.2,,00.0,0635.0,31.0
2021-10-25T15:36:00Z,00000200,01000000,0000.65,0000.33,0000.46,-000.45,0000.18,0000.07,0000.46,0000.30,0000.18,17.8,24.3,,00.0,0635.0,31.0
2021-10-25T15:37:00Z,00000200,01000000,0000.42,-000.06,0000.19,0000.01,0000.13,0000.22,0000.26,0000.21,0000.35,17.9,24.3,,00.0,0635.0,31.0
2021-10-25T15:38:00Z,00000200,01000000,0000.74,0000.28,-000.06,0000.66,0000.36,0000.09,-000.27,-000.27,-000.21,17.8,24.3,,00.0,0635.0,31.0
2021-10-25T15:39:00Z,00000200,01000000,0000.51,0000.32,0000.12,0000.76,0000.07,-000.14,0000.38,0000.35,-000.15,17.8,24.3,,00.0,0635.0,31.0
2021-10-25T15:40:00Z,00000200,01000000,-000.07,0000.40,0000.02,0000.34,0000.34,-000.16,0000.14,0000.31,0000.55,17.7,24.2,,00.0,0635.0,31.0
2021-10-25T15:41:00Z,00000200,01000000,0000.29,0000.08,0000.39,-000.08,0000.19,0000.05,0000.29,-000.04,0000.02,17.7,24.2,,00.0,0635.0,30.9
2021-10-25T15:42:00Z,00000200,01000000,0000.39,0000.12,0000.29,0000.28,0000.10,-000.02,0000.04,0000.06,0000.18,17.6,24.2,,00.0,0635.0,30.9
2021-10-25T15:43:00Z,00000200,01000000,0000.40,0000.01,0000.05,0000.07,-000.01,0000.17,0000.27,0000.34,0000.21,17.6,24.1,,00.0,0635.0,30.9
2021-10-25T15:44:00Z,00000200,01000000,0000.31,0000.39,0000.23,0000.19,-000.00,0000.26,0000.03,-000.14,-000.39,17.5,24.1,,00.0,0635.0,30.9
2021-10-25T15:45:00Z,00000200,01000000,0001.31,0000.31,0000.22,0000.68,0000.16,0000.05,0000.01,0000.21,0000.57,17.4,24.0,,00.0,0635.0,30.9
2021-10-25T15:46:00Z,00000200,01000000,0000.82,0000.39,0000.25,0000.37,0000.16,0000.12,0000.29,0000.01,0000.12,17.4,24.0,,00.0,0635.0,30.9
2021-10-25T15:47:00Z,00000200,01000000,0000.66,0000.13,0000.19,0000.31,-000.12,0000.02,0000.33,0000.71,0000.42,17.4,24.0,,00.0,0635.0,30.9
2021-10-25T15:48:00Z,00000200,01000000,0001.37,0000.10,0000.12,0000.23,-000.08,0000.03,0000.64,0000.29,0000.57,17.5,24.1,,00.0,0635.0,31.0
2021-10-25T15:49:00Z,00000200,01000000,0001.41,0000.50,0000.09,0000.56,0000.39,0000.23,0000.12,0000.06,-000.14,17.5,24.1,,00.0,0635.0,31.0
2021-10-25T15:50:00Z,00000200,01000000,-000.21,0000.33,0000.40,-000.13,-000.15,0000.40,0000.21,0000.46,0000.44,17.6,24.1,,00.0,0635.1,31.0
2021-10-25T15:51:00Z,00000200,01000000,0000.27,0000.19,0000.24,0000.51,-000.03,0000.42,0000.14,0000.19,0000.11,17.7,24.1,,00.0,0635.0,31.0
2021-10-25T15:52:00Z,00000200,01000000,0000.72,0000.23,0000.16,0000.45,0000.05,0000.12,0000.35,0000.17,0000.05,17.8,24.2,,00.0,0635.1,31.0
2021-10-25T15:53:00Z,00000200,01000000,0000.91,0000.21,0000.16,-000.39,-000.08,0000.32,-000.02,0000.05,0000.01,17.9,24.2,,00.0,0635.1,31.0
2021-10-25T15:54:00Z,00000200,01000000,0000.58,0000.45,0000.31,0000.05,-000.06,0000.36,0000.32,0000.57,0000.37,17.9,24.2,,00.0,0635.1,31.0
2021-10-25T15:55:00Z,00000200,01000000,0000.61,0000.18,0000.27,0000.35,-000.04,0000.14,0000.00,-000.03,0000.33,17.8,24.2,,00.0,0635.1,31.0
2021-10-25T15:56:00Z,00000200,01000000,0000.58,0000.59,0000.25,0000.10,-000.13,0000.28,0000.26,0000.10,0000.02,17.8,24.2,,00.0,0635.1,31.0
2021-10-25T15:57:00Z,00000200,41000000,,,,,,,0000.52,0000.31,-000.03,17.8,24.2,,00.0,0635.2,31.0
2021-10-25T15:58:00Z,00000200,61000000,,,,,,,-000.27,-000.32,-000.09,17.4,24.3,,00.0,0634.3,30.9
2021-10-25T15:59:00Z,00000200,21000000,,,,,,,-000.24,-000.28,-000.27,17.4,24.4,,00.0,0634.3,30.9
